Flag for U.S.A. Weather past 2 weeks in Visalia, California, U.S.A.

Now
55 °F

Clear.


Feels Like: 55 °F
Forecast: 55 / 82 °F
Wind: 3 mph from Southwest

Location: Visalia Municipal

Current Time: Oct 1, 2014 at 7:30:51 AM

Latest Report: Oct 1, 2014 at 6:55 AM


Visibility: 10 mi

Pressure: 29.86 "Hg

Humidity: 72%

Dew point: 46 °F

Location of VisaliaLocation

Historic Weather in Visalia — Graph

°F

Visalia temperature yesterday

Maximum temperature yesterday: 84 °F (at 3:15 PM)
Minimum temperature yesterday: 55 °F (at 4:55 AM)
Average temperature yesterday: 70 °F

Past Weeks' High & Low Weather Summary

 TemperatureHumidityPressure
High99 °F (Sep 17, 5:15 PM)83% (Sep 25, 6:35 AM)30.02 "Hg (Sep 25, 6:35 AM)
Low52 °F (Sep 27, 6:55 AM)22% (Sep 17, 5:35 PM)29.68 "Hg (Sep 17, 4:55 PM)
Average73 °F56%29.88 "Hg
* Reported Sep 16 6:15 AM — Oct 1 6:35 AM, Visalia, Weather by CustomWeather, © 2014

Note: Actual official high and low records may vary slightly from our data, if they occured in-between our weather recording intervals... More about our weather records

Advertising

Visalia weather history for previous 24 hours

 ConditionsComfort  
Time TempWeatherWind HumidityBarometerVisibility
6:35 AM
Oct 1
55 °FClear.3 mph77%29.86 "Hg10 mi
6:15 AM55 °FClear.6 mph77%29.86 "Hg10 mi
5:55 AM55 °FClear.6 mph77%29.84 "Hg10 mi
5:35 AM55 °FClear.3 mph77%29.84 "Hg10 mi
4:55 AM59 °FClear.No wind72%29.83 "Hg10 mi
4:35 AM61 °FClear.3 mph68%29.82 "Hg10 mi
4:15 AM61 °FClear.3 mph68%29.82 "Hg10 mi
3:55 AM63 °FClear.5 mph68%29.81 "Hg10 mi
3:35 AM63 °FClear.7 mph68%29.81 "Hg10 mi
3:15 AM63 °FClear.7 mph68%29.81 "Hg10 mi
2:55 AM63 °FClear.7 mph68%29.82 "Hg10 mi
2:35 AM64 °FClear.7 mph64%29.82 "Hg10 mi
2:15 AM63 °FClear.8 mph68%29.82 "Hg10 mi
1:55 AM63 °FClear.7 mph68%29.82 "Hg10 mi
1:35 AM63 °FClear.6 mph68%29.82 "Hg10 mi
1:15 AM63 °FClear.6 mph64%29.81 "Hg10 mi
12:55 AM64 °FClear.7 mph64%29.81 "Hg10 mi
12:35 AM63 °FClear.7 mph68%29.82 "Hg10 mi
12:15 AM63 °FClear.6 mph68%29.82 "Hg10 mi
11:55 PM
Sep 30
64 °FClear.5 mph64%29.82 "Hg10 mi
11:35 PM64 °FClear.6 mph64%29.82 "Hg10 mi
11:15 PM66 °FClear.5 mph60%29.82 "Hg10 mi
10:55 PM66 °FClear.8 mph60%29.81 "Hg10 mi
10:35 PM66 °FClear.6 mph60%29.81 "Hg10 mi
10:15 PM70 °FClear.6 mph53%29.81 "Hg10 mi
9:55 PM72 °FClear.9 mph53%29.81 "Hg10 mi
9:35 PM72 °FClear.10 mph53%29.80 "Hg10 mi
9:15 PM73 °FClear.9 mph50%29.80 "Hg10 mi
8:55 PM73 °FClear.9 mph50%29.80 "Hg10 mi
8:35 PM73 °FClear.8 mph50%29.80 "Hg10 mi
8:15 PM73 °FClear.7 mph50%29.79 "Hg10 mi
7:55 PM75 °FClear.7 mph50%29.78 "Hg10 mi
7:35 PM75 °FSunny.8 mph50%29.78 "Hg10 mi
7:15 PM77 °FSunny.7 mph44%29.77 "Hg10 mi
6:55 PM77 °FSunny.8 mph44%29.78 "Hg10 mi
6:35 PM79 °FSunny.7 mph42%29.77 "Hg10 mi
6:15 PM82 °FSunny.9 mph37%29.78 "Hg10 mi
5:55 PM82 °FSunny.7 mph37%29.78 "Hg10 mi
5:35 PM82 °FSunny.9 mph40%29.78 "Hg10 mi
5:15 PM84 °FSunny.9 mph35%29.78 "Hg10 mi
4:55 PM84 °FSunny.7 mph35%29.79 "Hg10 mi
4:35 PM82 °FSunny.9 mph40%29.79 "Hg10 mi
4:15 PM84 °FSunny.7 mph37%29.80 "Hg10 mi
3:55 PM84 °FSunny.9 mph40%29.80 "Hg10 mi
3:35 PM84 °FSunny.6 mph37%29.81 "Hg10 mi
3:15 PM84 °FSunny.8 mph37%29.82 "Hg10 mi
2:55 PM82 °FSunny.6 mph40%29.82 "Hg10 mi
2:35 PM82 °FSunny.6 mph40%29.82 "Hg10 mi
1:35 PM81 °FSunny.3 mph42%29.86 "Hg10 mi
1:15 PM81 °FSunny.No wind42%29.87 "Hg10 mi
12:55 PM81 °FSunny.7 mph42%29.88 "Hg10 mi
12:35 PM81 °FSunny.No wind45%29.90 "Hg10 mi
12:15 PM79 °FSunny.No wind45%29.91 "Hg10 mi
11:55 AM77 °FSunny.3 mph47%29.92 "Hg10 mi
11:35 AM75 °FSunny.3 mph47%29.92 "Hg10 mi
11:15 AM75 °FSunny.No wind50%29.93 "Hg10 mi
10:55 AM73 °FSunny.No wind50%29.93 "Hg10 mi
10:35 AM73 °FSunny.5 mph50%29.94 "Hg10 mi
10:15 AM72 °FSunny.5 mph53%29.94 "Hg10 mi
9:55 AM70 °FSunny.5 mph57%29.95 "Hg10 mi
9:35 AM70 °FSunny.3 mph57%29.95 "Hg10 mi
9:15 AM66 °FSunny.5 mph60%29.94 "Hg10 mi
8:55 AM64 °FSunny.6 mph64%29.95 "Hg10 mi
8:35 AM64 °FSunny.6 mph64%29.95 "Hg10 mi
8:15 AM63 °FSunny.5 mph64%29.95 "Hg10 mi
7:55 AM57 °FSunny.No wind72%29.95 "Hg10 mi
7:35 AM57 °FClear.No wind67%29.95 "Hg10 mi
7:15 AM57 °FClear.3 mph67%29.95 "Hg10 mi
Weather by CustomWeather, © 2014

See weather overviewHow to use our weather pages